Litchfield, MN

4:10 AM CST on February 12, 2016 (GMT -0600)
Litchfield Municipal

Weather History for KLJF - May, 2013

Change the Weather History Date:

Friday, May 10, 2013

  Actual Average Record
Temperature  
Mean Temperature 50 °F -  
Max Temperature 66 °F 69 °F 91 °F (1987)
Min Temperature 35 °F 46 °F 31 °F (1981)
Degree Days  
Heating Degree Days 14    
Moisture  
Dew Point 29 °F    
Average Humidity 46    
Maximum Humidity 81    
Minimum Humidity 18    
Precipitation  
Precipitation 0.00 in - - ()
Sea Level Pressure  
Sea Level Pressure 30.05 in    
Wind  
Wind Speed 7 mph (North)    
Max Wind Speed 25 mph    
Max Gust Speed 33 mph    
Visibility 10 miles    
Events Rain    
Averages and records for this station are not official NWS values.
T = Trace of Precipitation, MM = Missing Value Source: NWS Daily Summary

Daily Weather History Graph

Daily Weather History Graph

Search for Another Location

Airport or City:

Trip Planner

Search our weather history database for the weather conditions in past years. The results will help you decide how hot, cold, wet, or windy it might be!

Date:

Astronomy

May. 10, 2013 Rise Set
Actual Time 5:54 AM CDT 8:35 PM CDT
Civil Twilight 5:20 AM CDT 9:09 PM CDT
Nautical Twilight 4:38 AM CDT 9:51 PM CDT
Astronomical Twilight 3:49 AM CDT 10:41 PM CDT
Moon 6:18 AM CDT (5/10) 9:26 PM CDT (5/10)
Length of Visible Light 15h 48m
Length of Day
14h 40m
New Moon, 0% of the Moon is Illuminated
May 10
New Moon
May 17
First Quarter
May 24
Full
May 31
Last Quarter
Jun 8
New

Hourly Weather History & Observations

Time (CDT) Temp. Windchill Dew Point Humidity Pressure Visibility Wind Dir Wind Speed Gust Speed Precip Events Conditions
12:13 AM 44.6 °F 40.7 °F 37.4 °F 76% 30.14 in 10.0 mi NNE 6.9 mph - N/A   Scattered Clouds
12:52 AM 42.8 °F 37.5 °F 33.8 °F 70% 30.15 in 10.0 mi NE 9.2 mph - N/A   Scattered Clouds
1:13 AM 42.8 °F 38.0 °F 33.8 °F 70% 30.15 in 10.0 mi NNE 8.1 mph - N/A   Scattered Clouds
1:33 AM 42.8 °F 36.2 °F 30.2 °F 61% 30.15 in 10.0 mi NE 12.7 mph 18.4 mph N/A   Clear
1:52 AM 42.8 °F 38.0 °F 30.2 °F 61% 30.15 in 10.0 mi NE 8.1 mph - N/A   Clear
2:13 AM 41.0 °F 36.4 °F 32.0 °F 70% 30.14 in 10.0 mi NNE 6.9 mph - N/A   Clear
2:33 AM 41.0 °F 35.2 °F 33.8 °F 76% 30.14 in 10.0 mi NNE 9.2 mph - N/A   Clear
2:52 AM 41.0 °F 35.8 °F 33.8 °F 76% 30.14 in 10.0 mi NNE 8.1 mph - N/A   Clear
3:13 AM 39.2 °F 33.0 °F 33.8 °F 81% 30.13 in 10.0 mi NNE 9.2 mph - N/A   Clear
3:53 AM 39.2 °F 33.0 °F 30.2 °F 70% 30.13 in 10.0 mi NNE 9.2 mph - N/A   Clear
4:13 AM 37.4 °F 30.8 °F 30.2 °F 75% 30.13 in 10.0 mi NNE 9.2 mph - N/A   Clear
4:33 AM 37.4 °F 30.8 °F 30.2 °F 75% 30.13 in 10.0 mi NE 9.2 mph - N/A   Clear
4:53 AM 37.4 °F 30.8 °F 30.2 °F 75% 30.13 in 10.0 mi NNE 9.2 mph - N/A   Clear
5:12 AM 37.4 °F 31.4 °F 30.2 °F 75% 30.13 in 10.0 mi NNE 8.1 mph - N/A   Clear
5:33 AM 37.4 °F 32.1 °F 30.2 °F 75% 30.13 in 10.0 mi NNE 6.9 mph - N/A   Clear
5:53 AM 37.4 °F 30.8 °F 30.2 °F 75% 30.14 in 10.0 mi NNE 9.2 mph - N/A   Clear
6:12 AM 35.6 °F 29.2 °F 30.2 °F 81% 30.14 in 10.0 mi NE 8.1 mph - N/A   Clear
6:33 AM 37.4 °F 32.1 °F 30.2 °F 75% 30.14 in 10.0 mi NNE 6.9 mph - N/A   Clear
7:12 AM 37.4 °F 32.1 °F 30.2 °F 75% 30.14 in 10.0 mi NNE 6.9 mph - N/A   Clear
7:33 AM 39.2 °F 34.2 °F 30.2 °F 70% 30.15 in 10.0 mi NE 6.9 mph - N/A   Clear
8:13 AM 41.0 °F 35.8 °F 30.2 °F 65% 30.14 in 10.0 mi ENE 8.1 mph - N/A   Clear
8:33 AM 42.8 °F 38.0 °F 30.2 °F 61% 30.14 in 10.0 mi ENE 8.1 mph 16.1 mph N/A   Clear
8:52 AM 44.6 °F 40.2 °F 28.4 °F 53% 30.13 in 10.0 mi East 8.1 mph - N/A   Clear
9:13 AM 44.6 °F 40.2 °F 28.4 °F 53% 30.13 in 10.0 mi NE 8.1 mph - N/A   Clear
9:33 AM 46.4 °F 43.5 °F 28.4 °F 50% 30.14 in 10.0 mi NE 5.8 mph - N/A   Clear
9:52 AM 46.4 °F 42.4 °F 30.2 °F 53% 30.13 in 10.0 mi North 8.1 mph - N/A   Clear
10:13 AM 46.4 °F 45.2 °F 28.4 °F 50% 30.12 in 10.0 mi NE 3.5 mph - N/A   Clear
10:33 AM 48.2 °F - 28.4 °F 46% 30.12 in 10.0 mi NNE 8.1 mph - N/A   Clear
10:52 AM 50.0 °F - 28.4 °F 43% 30.11 in 10.0 mi ENE 5.8 mph - N/A   Clear
11:13 AM 51.8 °F - 26.6 °F 38% 30.11 in 10.0 mi Calm Calm - N/A   Clear
11:33 AM 53.6 °F - 26.6 °F 35% 30.11 in 10.0 mi NE 3.5 mph - N/A   Clear
12:13 PM 55.4 °F - 26.6 °F 33% 30.10 in 10.0 mi Calm Calm - N/A   Clear
12:33 PM 57.2 °F - 26.6 °F 31% 30.09 in 10.0 mi Calm Calm - N/A   Clear
12:52 PM 57.2 °F - 24.8 °F 29% 30.08 in 10.0 mi Calm Calm - N/A   Clear
1:13 PM 57.2 °F - 24.8 °F 29% 30.08 in 10.0 mi Calm Calm - N/A   Clear
1:33 PM 60.8 °F - 24.8 °F 25% 30.07 in 10.0 mi West 6.9 mph - N/A   Clear
1:52 PM 59.0 °F - 24.8 °F 27% 30.07 in 10.0 mi West 5.8 mph - N/A   Clear
2:13 PM 62.6 °F - 24.8 °F 24% 30.05 in 10.0 mi West 5.8 mph - N/A   Clear
2:33 PM 62.6 °F - 21.2 °F 20% 30.04 in 10.0 mi Calm Calm - N/A   Clear
2:52 PM 62.6 °F - 21.2 °F 20% 30.04 in 10.0 mi NW 3.5 mph - N/A   Clear
3:13 PM 64.4 °F - 21.2 °F 19% 30.02 in 10.0 mi WSW 4.6 mph - N/A   Clear
3:33 PM 64.4 °F - 21.2 °F 19% 30.02 in 10.0 mi West 5.8 mph - N/A   Clear
3:53 PM 64.4 °F - 21.2 °F 19% 30.01 in 10.0 mi West 8.1 mph - N/A   Clear
4:13 PM 66.2 °F - 23.0 °F 19% 29.99 in 10.0 mi WNW 5.8 mph - N/A   Clear
4:32 PM 66.2 °F - 21.2 °F 18% 29.98 in 10.0 mi Calm Calm - N/A   Clear
4:53 PM 66.2 °F - 21.2 °F 18% 29.98 in 10.0 mi West 4.6 mph - N/A   Clear
5:32 PM 66.2 °F - 23.0 °F 19% 29.97 in 10.0 mi WSW 8.1 mph - N/A   Clear
5:53 PM 66.2 °F - 21.2 °F 18% 29.96 in 10.0 mi West 6.9 mph - N/A   Clear
6:13 PM 66.2 °F - 23.0 °F 19% 29.96 in 10.0 mi WSW 6.9 mph - N/A   Clear
6:32 PM 66.2 °F - 26.6 °F 23% 29.95 in 10.0 mi West 5.8 mph - N/A   Clear
6:53 PM 66.2 °F - 24.8 °F 21% 29.94 in 10.0 mi WNW 9.2 mph - N/A   Clear
7:13 PM 64.4 °F - 24.8 °F 22% 29.94 in 10.0 mi WSW 6.9 mph - N/A   Clear
7:33 PM 64.4 °F - 24.8 °F 22% 29.92 in 10.0 mi West 4.6 mph - N/A   Clear
7:53 PM 62.6 °F - 26.6 °F 26% 29.92 in 10.0 mi WSW 3.5 mph - N/A   Clear
8:13 PM 60.8 °F - 26.6 °F 27% 29.91 in 10.0 mi Calm Calm - N/A   Clear
8:33 PM 59.0 °F - 30.2 °F 34% 29.91 in 10.0 mi Calm Calm - N/A   Clear
8:53 PM 59.0 °F - 32.0 °F 36% 29.91 in 10.0 mi Calm Calm - N/A   Mostly Cloudy
9:13 PM 59.0 °F - 32.0 °F 36% 29.91 in 10.0 mi Calm Calm - N/A   Mostly Cloudy
9:32 PM 59.0 °F - 33.8 °F 39% 29.91 in 10.0 mi Calm Calm - N/A   Unknown
9:53 PM 59.0 °F - 33.8 °F 39% 29.90 in 10.0 mi Calm Calm - N/A Rain Light Rain
10:13 PM 60.8 °F - 30.2 °F 31% 29.91 in 10.0 mi SW 4.6 mph - N/A   Scattered Clouds
10:32 PM 60.8 °F - 39.2 °F 45% 29.90 in 10.0 mi WSW 6.9 mph - N/A   Overcast
10:53 PM 57.2 °F - 42.8 °F 59% 29.91 in 10.0 mi WSW 5.8 mph - N/A   Overcast
11:13 PM 57.2 °F - 39.2 °F 51% 29.93 in 10.0 mi NNW 25.3 mph 32.2 mph N/A   Mostly Cloudy
11:32 PM 55.4 °F - 39.2 °F 54% 29.94 in 10.0 mi NNW 20.7 mph 31.1 mph N/A   Scattered Clouds
11:53 PM 55.4 °F - 39.2 °F 54% 29.95 in 10.0 mi NNW 25.3 mph 33.4 mph N/A   Clear